TimeEDT,TemperatureF,Dew PointF,Humidity,Sea Level PressureIn,VisibilityMPH,Wind Direction,Wind SpeedMPH,Gust SpeedMPH,PrecipitationIn,Events,Conditions,WindDirDegrees,DateUTC
12:15 AM,37.4,32.0,81,30.18,10.0,NW,6.9,-,N/A,,Overcast,310,2013-04-25 04:15:00
12:35 AM,37.4,32.0,81,30.18,10.0,WNW,8.1,19.6,N/A,,Overcast,300,2013-04-25 04:35:00
12:55 AM,37.4,32.0,81,30.18,10.0,WNW,9.2,16.1,N/A,,Overcast,290,2013-04-25 04:55:00
1:15 AM,35.6,30.2,81,30.17,10.0,WNW,9.2,-,N/A,,Overcast,290,2013-04-25 05:15:00
1:35 AM,35.6,30.2,81,30.17,10.0,WNW,11.5,18.4,N/A,,Overcast,290,2013-04-25 05:35:00
1:55 AM,35.6,28.4,75,30.18,10.0,WNW,9.2,17.3,N/A,,Overcast,300,2013-04-25 05:55:00
2:15 AM,35.6,28.4,75,30.18,10.0,NW,4.6,-,N/A,,Overcast,310,2013-04-25 06:15:00
2:35 AM,35.6,26.6,70,30.19,10.0,WNW,4.6,-,N/A,,Mostly Cloudy,290,2013-04-25 06:35:00
2:55 AM,33.8,26.6,75,30.19,10.0,NNW,5.8,-,N/A,,Scattered Clouds,330,2013-04-25 06:55:00
3:15 AM,33.8,26.6,75,30.19,10.0,NNW,4.6,-,N/A,,Scattered Clouds,340,2013-04-25 07:15:00
3:35 AM,33.8,26.6,75,30.19,10.0,NNW,5.8,-,N/A,,Clear,340,2013-04-25 07:35:00
3:55 AM,32.0,26.6,80,30.19,10.0,NW,4.6,-,N/A,,Clear,310,2013-04-25 07:55:00
4:15 AM,32.0,26.6,80,30.21,10.0,NNW,10.4,-,N/A,,Clear,330,2013-04-25 08:15:00
4:35 AM,32.0,24.8,75,30.21,10.0,NNW,4.6,-,N/A,,Clear,340,2013-04-25 08:35:00
4:55 AM,32.0,23.0,69,30.21,10.0,NNW,5.8,-,N/A,,Clear,330,2013-04-25 08:55:00
5:15 AM,32.0,23.0,69,30.21,10.0,North,3.5,-,N/A,,Clear,350,2013-04-25 09:15:00
5:35 AM,32.0,23.0,69,30.22,10.0,NNW,3.5,-,N/A,,Clear,330,2013-04-25 09:35:00
5:55 AM,32.0,23.0,69,30.22,10.0,Calm,Calm,-,N/A,,Clear,0,2013-04-25 09:55:00
6:15 AM,32.0,23.0,69,30.22,10.0,Calm,Calm,-,N/A,,Clear,0,2013-04-25 10:15:00
6:35 AM,32.0,23.0,69,30.23,10.0,Calm,Calm,-,N/A,,Clear,0,2013-04-25 10:35:00
6:55 AM,32.0,23.0,69,30.23,10.0,Calm,Calm,-,N/A,,Clear,0,2013-04-25 10:55:00
7:15 AM,30.2,24.8,80,30.23,10.0,Calm,Calm,-,N/A,,Clear,0,2013-04-25 11:15:00
7:35 AM,30.2,26.6,86,30.25,10.0,Calm,Calm,-,N/A,,Clear,0,2013-04-25 11:35:00
7:55 AM,32.0,24.8,75,30.26,10.0,Calm,Calm,-,N/A,,Clear,0,2013-04-25 11:55:00
8:15 AM,32.0,24.8,75,30.27,10.0,Calm,Calm,-,N/A,,Clear,0,2013-04-25 12:15:00
8:35 AM,33.8,23.0,65,30.28,10.0,Calm,Calm,-,N/A,,Scattered Clouds,0,2013-04-25 12:35:00
8:55 AM,33.8,24.8,70,30.29,10.0,Calm,Calm,-,N/A,,Mostly Cloudy,0,2013-04-25 12:55:00
9:15 AM,35.6,26.6,70,30.29,10.0,Calm,Calm,-,N/A,,Mostly Cloudy,0,2013-04-25 13:15:00
9:35 AM,35.6,26.6,70,30.29,10.0,Calm,Calm,-,N/A,,Mostly Cloudy,0,2013-04-25 13:35:00
9:55 AM,35.6,26.6,70,30.29,10.0,South,3.5,-,N/A,,Mostly Cloudy,180,2013-04-25 13:55:00
10:15 AM,35.6,24.8,65,30.29,10.0,Calm,Calm,-,N/A,,Scattered Clouds,0,2013-04-25 14:15:00
10:35 AM,37.4,24.8,60,30.30,10.0,Calm,Calm,-,N/A,,Clear,0,2013-04-25 14:35:00
10:55 AM,37.4,23.0,56,30.30,10.0,Calm,Calm,-,N/A,,Mostly Cloudy,0,2013-04-25 14:55:00
11:15 AM,41.0,26.6,57,30.31,10.0,SE,3.5,-,N/A,,Scattered Clouds,130,2013-04-25 15:15:00
11:35 AM,41.0,26.6,57,30.31,10.0,South,3.5,-,N/A,,Scattered Clouds,180,2013-04-25 15:35:00
11:55 AM,41.0,28.4,61,30.31,10.0,SSW,5.8,-,N/A,,Clear,200,2013-04-25 15:55:00
12:15 PM,42.8,26.6,53,30.31,10.0,WSW,5.8,-,N/A,,Clear,240,2013-04-25 16:15:00
12:35 PM,42.8,26.6,53,30.31,10.0,WSW,8.1,-,N/A,,Clear,240,2013-04-25 16:35:00
12:55 PM,44.6,26.6,49,30.30,10.0,West,3.5,-,N/A,,Clear,270,2013-04-25 16:55:00
1:15 PM,44.6,23.0,43,30.30,10.0,SSW,4.6,-,N/A,,Clear,210,2013-04-25 17:15:00
1:35 PM,46.4,26.6,46,30.29,10.0,SSW,5.8,-,N/A,,Clear,210,2013-04-25 17:35:00
1:55 PM,48.2,28.4,46,30.28,10.0,SW,6.9,-,N/A,,Clear,230,2013-04-25 17:55:00
2:15 PM,48.2,26.6,43,30.28,10.0,South,4.6,-,N/A,,Clear,170,2013-04-25 18:15:00
2:35 PM,50.0,23.0,35,30.27,10.0,West,4.6,-,N/A,,Clear,280,2013-04-25 18:35:00
2:55 PM,50.0,26.6,40,30.27,10.0,SSW,8.1,-,N/A,,Clear,200,2013-04-25 18:55:00
3:15 PM,51.8,26.6,38,30.27,10.0,WSW,8.1,-,N/A,,Clear,240,2013-04-25 19:15:00
3:35 PM,51.8,19.4,28,30.26,10.0,West,11.5,16.1,N/A,,Clear,260,2013-04-25 19:35:00
3:55 PM,53.6,19.4,26,30.25,10.0,West,8.1,-,N/A,,Clear,260,2013-04-25 19:55:00
4:15 PM,53.6,21.2,28,30.24,10.0,SW,10.4,16.1,N/A,,Clear,220,2013-04-25 20:15:00
4:35 PM,55.4,14.0,20,30.23,10.0,West,9.2,-,N/A,,Clear,280,2013-04-25 20:35:00
4:55 PM,55.4,14.0,20,30.23,10.0,WSW,8.1,11.5,N/A,,Clear,250,2013-04-25 20:55:00
5:15 PM,55.4,14.0,20,30.23,10.0,WSW,11.5,-,N/A,,Clear,240,2013-04-25 21:15:00
5:35 PM,55.4,14.0,20,30.24,10.0,West,8.1,-,N/A,,Clear,280,2013-04-25 21:35:00
5:55 PM,55.4,14.0,20,30.24,10.0,West,5.8,9.2,N/A,,Clear,280,2013-04-25 21:55:00
6:15 PM,55.4,14.0,20,30.24,10.0,WNW,8.1,-,N/A,,Clear,290,2013-04-25 22:15:00
6:35 PM,53.6,12.2,19,30.24,10.0,NW,5.8,-,N/A,,Clear,310,2013-04-25 22:35:00
6:55 PM,53.6,14.0,21,30.24,10.0,NW,8.1,-,N/A,,Clear,320,2013-04-25 22:55:00
7:15 PM,53.6,14.0,21,30.25,10.0,NW,8.1,-,N/A,,Clear,310,2013-04-25 23:15:00
7:35 PM,51.8,12.2,21,30.26,10.0,NW,6.9,-,N/A,,Clear,310,2013-04-25 23:35:00
7:55 PM,51.8,14.0,22,30.27,10.0,NW,4.6,-,N/A,,Clear,310,2013-04-25 23:55:00
8:15 PM,50.0,15.8,26,30.28,10.0,NW,5.8,-,N/A,,Clear,310,2013-04-26 00:15:00
8:35 PM,50.0,15.8,26,30.29,10.0,NNW,5.8,-,N/A,,Clear,330,2013-04-26 00:35:00
8:55 PM,48.2,17.6,30,30.29,10.0,NW,3.5,-,N/A,,Clear,320,2013-04-26 00:55:00
9:15 PM,46.4,17.6,32,30.31,10.0,NW,3.5,-,N/A,,Clear,310,2013-04-26 01:15:00
9:35 PM,46.4,17.6,32,30.33,10.0,NW,3.5,-,N/A,,Clear,320,2013-04-26 01:35:00
9:55 PM,46.4,19.4,34,30.33,10.0,NW,3.5,-,N/A,,Clear,320,2013-04-26 01:55:00
10:15 PM,46.4,19.4,34,30.34,10.0,NW,4.6,-,N/A,,Clear,310,2013-04-26 02:15:00
10:35 PM,46.4,19.4,34,30.34,10.0,Calm,Calm,-,N/A,,Clear,0,2013-04-26 02:35:00
10:55 PM,44.6,19.4,37,30.34,10.0,Calm,Calm,-,N/A,,Clear,0,2013-04-26 02:55:00
11:15 PM,42.8,19.4,39,30.34,10.0,Calm,Calm,-,N/A,,Clear,0,2013-04-26 03:15:00
11:35 PM,42.8,21.2,42,30.34,10.0,Calm,Calm,-,N/A,,Clear,0,2013-04-26 03:35:00
11:55 PM,42.8,21.2,42,30.34,10.0,Calm,Calm,-,N/A,,Clear,0,2013-04-26 03:55:00